TimeCST,TemperatureF,Dew PointF,Humidity,Sea Level PressureIn,VisibilityMPH,Wind Direction,Wind SpeedMPH,Gust SpeedMPH,PrecipitationIn,Events,Conditions,WindDirDegrees,DateUTC
12:54 AM,35.1,28.9,78,30.28,10.0,NE,6.9,-,N/A,,Clear,50,2013-03-07 06:54:00
1:54 AM,36.0,28.9,76,30.29,10.0,NNE,4.6,-,N/A,,Clear,30,2013-03-07 07:54:00
2:54 AM,36.0,28.9,76,30.29,10.0,Calm,Calm,-,N/A,,Clear,0,2013-03-07 08:54:00
3:54 AM,35.1,28.9,78,30.29,10.0,NE,4.6,-,N/A,,Clear,50,2013-03-07 09:54:00
4:54 AM,34.0,28.0,79,30.30,10.0,NE,4.6,-,N/A,,Clear,50,2013-03-07 10:54:00
5:54 AM,34.0,28.0,79,30.32,10.0,ENE,3.5,-,N/A,,Clear,60,2013-03-07 11:54:00
6:54 AM,36.0,28.0,73,30.34,10.0,Calm,Calm,-,N/A,,Clear,0,2013-03-07 12:54:00
7:54 AM,39.0,30.0,70,30.36,10.0,NE,3.5,-,N/A,,Clear,50,2013-03-07 13:54:00
8:54 AM,42.1,28.0,58,30.38,10.0,ENE,6.9,-,N/A,,Clear,70,2013-03-07 14:54:00
9:54 AM,46.9,28.0,48,30.38,10.0,North,3.5,-,N/A,,Clear,10,2013-03-07 15:54:00
10:54 AM,51.1,28.9,43,30.37,10.0,NNE,6.9,-,N/A,,Clear,20,2013-03-07 16:54:00
11:54 AM,53.1,28.9,40,30.34,10.0,NNW,5.8,-,N/A,,Clear,330,2013-03-07 17:54:00
12:54 PM,54.0,28.0,37,30.31,10.0,SW,3.5,-,N/A,,Clear,230,2013-03-07 18:54:00
1:54 PM,57.9,27.0,31,30.28,10.0,NNE,6.9,-,N/A,,Clear,30,2013-03-07 19:54:00
2:54 PM,57.0,27.0,32,30.27,10.0,North,3.5,-,N/A,,Clear,350,2013-03-07 20:54:00
3:54 PM,60.1,28.0,30,30.26,10.0,Variable,3.5,-,N/A,,Clear,0,2013-03-07 21:54:00
4:54 PM,60.1,28.0,30,30.25,10.0,North,4.6,-,N/A,,Clear,10,2013-03-07 22:54:00
5:54 PM,55.0,28.9,37,30.25,10.0,NE,5.8,-,N/A,,Clear,40,2013-03-07 23:54:00
6:54 PM,48.0,33.1,56,30.27,10.0,Calm,Calm,-,N/A,,Clear,0,2013-03-08 00:54:00
7:54 PM,42.1,34.0,73,30.27,10.0,Calm,Calm,-,N/A,,Clear,0,2013-03-08 01:54:00
8:54 PM,42.1,34.0,73,30.26,10.0,Calm,Calm,-,N/A,,Clear,0,2013-03-08 02:54:00
9:54 PM,41.0,34.0,76,30.27,10.0,Calm,Calm,-,N/A,,Clear,0,2013-03-08 03:54:00
10:54 PM,39.0,34.0,82,30.27,10.0,Calm,Calm,-,N/A,,Clear,0,2013-03-08 04:54:00
11:54 PM,39.0,34.0,82,30.26,10.0,Calm,Calm,-,N/A,,Clear,0,2013-03-08 05:54:00